When you browse on this site, cookies collect data to enhance your experience and personalize the content and advertising you see.
Visit our Privacy Policy to learn more. By continuing to use the site, you agree to this use of cookies and data.
  • In Hungary
  • List of Countries
  • For 7 days
  • Water Temperature
  • Satellite Maps
  • Weather Map
  • News
  • Weather Widgets
  • user-avatar
    Login

    Hourly Weather Chandrapur

    Today, 18 November, Sunday

    Time Temperature Precipitation Wind Pressure Humidity
    00:00 +23°C° 0 mm 1 mps 743 mmHg 49%
    01:00 +23°C° 0 mm 1 mps 743 mmHg 50%
    02:00 +23°C° 0 mm 1 mps 743 mmHg 51%
    03:00 +22°C° 0 mm 1 mps 743 mmHg 53%
    04:00 +22°C° 0 mm 1 mps 743 mmHg 54%
    05:00 +22°C° 0 mm 1 mps 743 mmHg 55%
    06:00 +24°C° 0 mm 1 mps 744 mmHg 53%
    07:00 +25°C° 0 mm 1 mps 744 mmHg 50%
    08:00 +27°C° 0 mm 1 mps 745 mmHg 48%
    09:00 +29°C° 0 mm 1 mps 745 mmHg 45%
    10:00 +32°C° 0 mm 1 mps 744 mmHg 42%
    11:00 +34°C° 0 mm 1 mps 744 mmHg 40%
    12:00 +34°C° 0 mm 1 mps 743 mmHg 38%
    13:00 +35°C° 0 mm 1 mps 743 mmHg 36%
    14:00 +35°C° 0 mm 1 mps 742 mmHg 34%
    15:00 +33°C° 0 mm 1 mps 742 mmHg 38%
    16:00 +32°C° 0 mm 1 mps 742 mmHg 41%
    17:00 +30°C° 0 mm 2 mps 742 mmHg 45%
    18:00 +29°C° 0 mm 2 mps 742 mmHg 45%
    19:00 +28°C° 0 mm 1 mps 743 mmHg 46%
    20:00 +27°C° 0 mm 1 mps 743 mmHg 46%
    21:00 +27°C° 0 mm 1 mps 743 mmHg 47%
    22:00 +26°C° 0 mm 1 mps 743 mmHg 47%
    23:00 +26°C° 0 mm 1 mps 744 mmHg 47%

    Tomorrow, 19 November, Monday

    Time Temperature Precipitation Wind Pressure Humidity
    00:00 +25°C° 0 mm 1 mps 743 mmHg 49%
    01:00 +25°C° 0 mm 1 mps 743 mmHg 50%
    02:00 +24°C° 0 mm 2 mps 743 mmHg 51%
    03:00 +24°C° 0 mm 1 mps 743 mmHg 53%
    04:00 +23°C° 0 mm 1 mps 743 mmHg 55%
    05:00 +22°C° 0 mm 1 mps 743 mmHg 58%
    06:00 +24°C° 0 mm 1 mps 744 mmHg 55%
    07:00 +25°C° 0 mm 1 mps 745 mmHg 53%
    08:00 +27°C° 0 mm 1 mps 745 mmHg 51%
    09:00 +29°C° 0 mm 1 mps 745 mmHg 47%
    10:00 +31°C° 0 mm 1 mps 745 mmHg 43%
    11:00 +34°C° 0 mm 1 mps 745 mmHg 39%
    12:00 +34°C° 0 mm 1 mps 745 mmHg 37%
    13:00 +35°C° 0 mm 1 mps 744 mmHg 35%
    14:00 +34°C° 0 mm 0 mps 743 mmHg 33%
    15:00 +34°C° 0 mm 1 mps 743 mmHg 36%
    16:00 +32°C° 0 mm 1 mps 743 mmHg 40%
    17:00 +30°C° 0 mm 1 mps 743 mmHg 44%
    18:00 +29°C° 0 mm 1 mps 744 mmHg 44%
    19:00 +29°C° 0 mm 1 mps 744 mmHg 45%
    20:00 +28°C° 0 mm 1 mps 745 mmHg 46%
    21:00 +27°C° 0 mm 1 mps 745 mmHg 47%
    22:00 +27°C° 0 mm 1 mps 745 mmHg 49%
    23:00 +26°C° 0 mm 1 mps 745 mmHg 50%

    Day after tomorrow, 20 November, Tuesday

    Time Temperature Precipitation Wind Pressure Humidity
    00:00 +26°C° 0 mm 1 mps 744 mmHg 51%
    01:00 +25°C° 0 mm 1 mps 744 mmHg 52%
    02:00 +25°C° 0 mm 1 mps 744 mmHg 53%
    03:00 +24°C° 0 mm 1 mps 744 mmHg 54%
    04:00 +24°C° 0 mm 1 mps 744 mmHg 55%
    05:00 +23°C° 0 mm 1 mps 744 mmHg 56%
    06:00 +25°C° 0 mm 1 mps 745 mmHg 54%
    07:00 +26°C° 0 mm 1 mps 746 mmHg 51%
    08:00 +27°C° 0 mm 1 mps 746 mmHg 48%
    09:00 +29°C° 0 mm 1 mps 746 mmHg 44%
    10:00 +31°C° 0 mm 1 mps 746 mmHg 40%
    11:00 +34°C° 0 mm 1 mps 746 mmHg 36%
    12:00 +34°C° 0 mm 1 mps 745 mmHg 34%
    13:00 +35°C° 0 mm 1 mps 744 mmHg 33%
    14:00 +35°C° 0 mm 1 mps 743 mmHg 31%
    15:00 +34°C° 0 mm 1 mps 743 mmHg 35%
    16:00 +32°C° 0 mm 1 mps 743 mmHg 38%
    17:00 +30°C° 0 mm 1 mps 743 mmHg 42%
    18:00 +29°C° 0 mm 1 mps 744 mmHg 42%
    19:00 +29°C° 0 mm 1 mps 744 mmHg 43%
    20:00 +28°C° 0 mm 1 mps 745 mmHg 43%
    21:00 +27°C° 0 mm 1 mps 745 mmHg 44%
    22:00 +27°C° 0 mm 1 mps 745 mmHg 45%
    23:00 +26°C° 0 mm 1 mps 745 mmHg 46%

    21 November, Wednesday

    Time Temperature Precipitation Wind Pressure Humidity
    00:00 +25°C° 0 mm 1 mps 745 mmHg 47%
    01:00 +25°C° 0 mm 1 mps 744 mmHg 48%
    02:00 +24°C° 0 mm 1 mps 744 mmHg 49%
    03:00 +24°C° 0 mm 1 mps 744 mmHg 49%
    04:00 +23°C° 0 mm 1 mps 744 mmHg 50%
    05:00 +23°C° 0 mm 1 mps 744 mmHg 50%
    06:00 +24°C° 0 mm 1 mps 745 mmHg 48%
    07:00 +25°C° 0 mm 1 mps 745 mmHg 46%
    08:00 +26°C° 0 mm 1 mps 746 mmHg 43%
    09:00 +29°C° 0 mm 1 mps 746 mmHg 39%
    10:00 +31°C° 0 mm 2 mps 746 mmHg 35%
    11:00 +34°C° 0 mm 2 mps 745 mmHg 31%
    12:00 +35°C° 0 mm 2 mps 745 mmHg 29%
    13:00 +35°C° 0 mm 1 mps 744 mmHg 28%
    14:00 +35°C° 0 mm 1 mps 743 mmHg 26%
    15:00 +33°C° 0 mm 1 mps 743 mmHg 30%
    16:00 +31°C° 0 mm 1 mps 743 mmHg 33%
    17:00 +29°C° 0 mm 1 mps 743 mmHg 37%
    18:00 +28°C° 0 mm 1 mps 744 mmHg 38%
    19:00 +27°C° 0 mm 1 mps 745 mmHg 39%
    20:00 +26°C° 0 mm 1 mps 745 mmHg 40%
    21:00 +26°C° 0 mm 1 mps 745 mmHg 41%
    22:00 +25°C° 0 mm 1 mps 745 mmHg 42%
    23:00 +25°C° 0 mm 1 mps 745 mmHg 43%

    22 November, Thursday

    Time Temperature Precipitation Wind Pressure Humidity
    00:00 +24°C° 0 mm 1 mps 745 mmHg 43%
    01:00 +24°C° 0 mm 1 mps 745 mmHg 44%
    02:00 +23°C° 0 mm 1 mps 744 mmHg 45%
    03:00 +23°C° 0 mm 1 mps 744 mmHg 46%
    04:00 +23°C° 0 mm 1 mps 745 mmHg 47%
    05:00 +22°C° 0 mm 1 mps 745 mmHg 48%
    06:00 +23°C° 0 mm 1 mps 746 mmHg 46%
    07:00 +25°C° 0 mm 1 mps 746 mmHg 45%
    08:00 +26°C° 0 mm 1 mps 747 mmHg 43%
    09:00 +28°C° 0 mm 1 mps 747 mmHg 39%
    10:00 +31°C° 0 mm 2 mps 747 mmHg 35%
    11:00 +34°C° 0 mm 2 mps 746 mmHg 31%
    12:00 +34°C° 0 mm 2 mps 746 mmHg 29%
    13:00 +35°C° 0 mm 2 mps 745 mmHg 28%
    14:00 +35°C° 0 mm 1 mps 744 mmHg 27%
    15:00 +33°C° 0 mm 1 mps 744 mmHg 31%
    16:00 +31°C° 0 mm 1 mps 744 mmHg 35%
    17:00 +29°C° 0 mm 1 mps 744 mmHg 39%
    18:00 +28°C° 0 mm 1 mps 745 mmHg 41%
    19:00 +27°C° 0 mm 1 mps 745 mmHg 43%
    20:00 +26°C° 0 mm 1 mps 746 mmHg 45%
    21:00 +25°C° 0 mm 1 mps 746 mmHg 47%
    22:00 +25°C° 0 mm 1 mps 746 mmHg 48%
    23:00 +24°C° 0 mm 1 mps 746 mmHg 49%

    23 November, Friday

    Time Temperature Precipitation Wind Pressure Humidity
    00:00 +24°C° 0 mm 1 mps 746 mmHg 50%
    01:00 +23°C° 0 mm 1 mps 745 mmHg 51%
    02:00 +23°C° 0 mm 1 mps 745 mmHg 52%
    03:00 +22°C° 0 mm 1 mps 745 mmHg 53%
    04:00 +22°C° 0 mm 1 mps 746 mmHg 54%
    05:00 +21°C° 0 mm 1 mps 746 mmHg 55%
    06:00 +23°C° 0 mm 1 mps 746 mmHg 52%
    07:00 +24°C° 0 mm 1 mps 747 mmHg 48%
    08:00 +26°C° 0 mm 1 mps 748 mmHg 45%
    09:00 +28°C° 0 mm 1 mps 747 mmHg 40%
    10:00 +31°C° 0 mm 1 mps 747 mmHg 35%
    11:00 +33°C° 0 mm 1 mps 747 mmHg 30%
    12:00 +34°C° 0 mm 2 mps 746 mmHg 29%
    13:00 +35°C° 0 mm 2 mps 745 mmHg 28%
    14:00 +35°C° 0 mm 2 mps 744 mmHg 26%
    15:00 +32°C° 0 mm 2 mps 744 mmHg 30%
    16:00 +31°C° 0 mm 2 mps 745 mmHg 34%
    17:00 +29°C° 0 mm 2 mps 745 mmHg 38%
    18:00 +28°C° 0 mm 2 mps 745 mmHg 39%
    19:00 +27°C° 0 mm 2 mps 746 mmHg 39%
    20:00 +26°C° 0 mm 1 mps 746 mmHg 39%
    21:00 +25°C° 0 mm 2 mps 746 mmHg 39%
    22:00 +24°C° 0 mm 2 mps 746 mmHg 39%
    23:00 +23°C° 0 mm 2 mps 746 mmHg 39%
    Show more